Location: Jodlow
(50.1500°N, 16.7500°E)
Time: 21:08:50
(UTC+01:00)

ISS - Visible Passes

Search period start: 30 November 2022 00:00
Search period end: 10 December 2022 00:00
Orbit: 415 x 420 km, 51.6° (Epoch: 30 November)

Date Brightness Start Highest point End Pass type
(mag) Time Alt. Az. Time Alt. Az. Time Alt. Az.
30 Nov -3.7 17:03:31 10° W 17:06:51 67° N 17:09:13 18° E visible
30 Nov -1.7 18:40:21 10° WNW 18:42:09 28° W 18:42:09 28° W visible
01 Dec -3.7 17:52:19 10° WNW 17:55:40 75° SSW 17:56:13 58° SE visible
02 Dec -3.8 17:04:18 10° WNW 17:07:40 87° NNE 17:10:23 15° ESE visible
02 Dec -1.5 18:41:17 10° W 18:43:19 24° WSW 18:43:19 24° WSW visible
03 Dec -2.6 17:53:09 10° W 17:56:19 40° SSW 17:57:38 27° SSE visible
04 Dec -3.2 17:05:05 10° WNW 17:08:23 57° SSW 17:11:40 10° SE visible
04 Dec -0.9 18:42:51 10° WSW 18:44:36 14° SW 18:45:06 13° SSW visible
05 Dec -1.2 17:54:16 10° W 17:56:48 20° SW 17:59:20 10° SSE visible
06 Dec -1.7 17:06:00 10° W 17:08:57 29° SSW 17:11:54 10° SSE visible
08 Dec -0.6 17:07:32 10° WSW 17:09:22 14° SW 17:11:11 10° S visible
